Regional Weather Roundup
Issued by NWS

Home | Current Version | Previous Version | Graphics & Text | Print | Product List | Glossary On
Versions: 1 2 3 4 5 6 7 8 9 10 11 12 13 14 15 16 17 18 19 20 21 22 23 24 25 26 27 28 29 30 31 32 33 34 35 36 37 38 39 40 41 42 43 44 45 46 47 48 49 50
000
ASUS43 KTOP 061908
RWRKS

WEATHER ROUNDUP FOR KANSAS
NATIONAL WEATHER SERVICE GOODLAND KS
200 PM CDT WED MAY 06 2015

NOTE:  "FAIR" INDICATES FEW OR NO CLOUDS BELOW 12,000 FEET WITH NO
SIGNIFICANT WEATHER AND/OR OBSTRUCTIONS TO VISIBILITY.

KSZ001>006-013>018-027>032-041>047-062000-
NORTHWEST KANSAS

CITY           SKY/WX    TMP DP  RH WIND       PRES   REMARKS
GOODLAND       CLOUDY    61  53  75 S13       29.66S
HAYS           PTSUNNY   72  57  60 S22G32    29.65F
HILL CITY      CLOUDY    71  58  63 S17G26    29.65F
RUSSELL        PTSUNNY   73  64  73 S28G38    29.65F
$$

KSZ061>065-074>080-084>089-062000-
SOUTHWEST KANSAS

CITY           SKY/WX    TMP DP  RH WIND       PRES   REMARKS
DODGE CITY     MOSUNNY   79  50  36 S30G41    29.68F
ELKHART          N/A     76  50  40 S15         N/A
GARDEN CITY    PTSUNNY   71  54  54 S21G28    29.67F
GREAT BEND     PTSUNNY   75  61  60 S35G41    29.68F
LIBERAL        SUNNY     77  55  47 SW21G28   29.71F
PRATT          MOSUNNY   77  59  53 S32G39    29.74F
$$

KSZ066>073-081>083-090>101-062000-
SOUTHEAST KANSAS

CITY           SKY/WX    TMP DP  RH WIND       PRES   REMARKS
CHANUTE        CLOUDY    72  63  73 S16G29    29.93F
COFFEYVILLE    CLOUDY    71  63  75 S14G22    29.93F
HUTCHINSON     CLOUDY    72  64  76 SE26G35   29.77F
MEDICINE LODGE   N/A     77  63  61 S26G43    29.73F
NEWTON         CLOUDY    66  61  82 S22G31    29.84F
PARSONS        CLOUDY    71  65  81 SE7       29.95F
WICHITA INTL   PTSUNNY   72  65  78 SE24G32   29.80F
WICHITA JABRA  CLOUDY    71  64  78 S21G29    29.82F
WICHITA MCCONL CLOUDY    70  65  84 SE22G28   29.82F
WINFIELD       PTSUNNY   72  66  81 S23G33    29.85F
$$

KSZ007>012-019>026-033>040-048>060-102>105-062000-
NORTHEAST KANSAS

CITY           SKY/WX    TMP DP  RH WIND       PRES   REMARKS
CONCORDIA      CLOUDY    69  61  75 S28G36    29.76F
EMPORIA        CLOUDY    68  62  81 S28G35    29.88F
LAWRENCE       CLOUDY    73  60  63 S21       29.92F
MANHATTAN      CLOUDY    72  63  73 S25G33    29.82F
MARYSVILLE     CLOUDY    68  61  77 S20G32    29.82F
OLATHE IND     CLOUDY    71  59  65 S24G35    29.96F
OLATHE EXE     PTSUNNY   72  60  66 S20G28    29.94F
SALINA         CLOUDY    71  62  73 S28G44    29.77F
TOPEKA BILLARD CLOUDY    72  61  68 SE20      29.90F
TOPEKA FORBES  CLOUDY    72  60  66 S23G31    29.89F
$$


USA.gov is the U.S. government's official web portal to all federal, state and local government web resources and services.